Brindisi, Italy

5:38 PM CEST on May 28, 2017 (GMT +0200)
Casale Mil

Weather History for LIBR - January, 2013

Change the Weather History Date:

Monday, January 21, 2013

  Actual Average Record
Temperature  
Mean Temperature 56 °F -  
Max Temperature 60 °F 56 °F 64 °F (2007)
Min Temperature 51 °F 44 °F 33 °F (2000)
Degree Days  
Heating Degree Days 10    
Growing Degree Days 6 (Base 50)    
Moisture  
Dew Point 53 °F    
Average Humidity 87    
Maximum Humidity 94    
Minimum Humidity 81    
Precipitation  
Precipitation 0.03 in 0.08 in - ()
Sea Level Pressure  
Sea Level Pressure 29.52 in    
Wind  
Wind Speed 15 mph ()    
Max Wind Speed 25 mph    
Max Gust Speed 37 mph    
Visibility 5.0 miles    
Events      
Averages and records for this station are not official NWS values.
T = Trace of Precipitation, MM = Missing Value Source: Averaged Metar Reports

Daily Weather History Graph

Daily Weather History Graph

Search for Another Location

Airport or City:

Trip Planner

Search our weather history database for the weather conditions in past years. The results will help you decide how hot, cold, wet, or windy it might be!

Date:

Astronomy

Jan. 21, 2013 Rise Set
Actual Time 7:06 AM CET 4:52 PM CET
Civil Twilight 6:37 AM CET 5:22 PM CET
Nautical Twilight 6:03 AM CET 5:55 PM CET
Astronomical Twilight 5:31 AM CET 6:28 PM CET
Moon 12:20 PM CET (1/21) 2:18 AM CET (1/21)
Length of Visible Light 10h 45m
Length of Day
9h 45m
Waxing Gibbous, 73% of the Moon is Illuminated
Jan 21
Waxing Gibbous
Jan 27
Full
Feb 3
Last Quarter
Feb 10
New
Feb 17
First Quarter

Hourly Weather History & Observations

Time (CET) Temp. Dew Point Humidity Pressure Visibility Wind Dir Wind Speed Gust Speed Precip Events Conditions
12:15 AM 57.2 °F 53.6 °F 88% 29.62 in 5.0 mi SSE 16.1 mph - N/A   Scattered Clouds
12:45 AM 57.2 °F 53.6 °F 88% 29.62 in 5.0 mi SSE 16.1 mph - N/A   Scattered Clouds
1:00 AM 58 °F 54 °F 81% 29.62 in 5 mi SSE 16.1 mph - -   Mist
1:15 AM 57.2 °F 53.6 °F 88% 29.62 in 5.0 mi SSE 16.1 mph - N/A   Scattered Clouds
1:45 AM 57.2 °F 53.6 °F 88% 29.62 in 5.0 mi SSE 16.1 mph - N/A   Scattered Clouds
3:45 AM 57.2 °F 53.6 °F 88% 29.59 in 4.3 mi SSE 19.6 mph - N/A   Partly Cloudy
4:15 AM 57.2 °F 53.6 °F 88% 29.59 in 4.3 mi SSE 19.6 mph - N/A   Partly Cloudy
4:45 AM 57.2 °F 53.6 °F 88% 29.59 in 4.3 mi SSE 20.7 mph - N/A   Partly Cloudy
5:15 AM 57.2 °F 53.6 °F 88% 29.59 in 4.3 mi SSE 19.6 mph - N/A   Partly Cloudy
5:45 AM 57.2 °F 53.6 °F 88% 29.56 in 4.3 mi SSE 19.6 mph - N/A   Scattered Clouds
6:15 AM 57.2 °F 53.6 °F 88% 29.56 in 4.3 mi SSE 20.7 mph - N/A   Scattered Clouds
6:45 AM 57.2 °F 53.6 °F 88% 29.53 in 4.3 mi SSE 19.6 mph - N/A   Scattered Clouds
7:00 AM 57 °F 54 °F 85% 29.56 in 4 mi SSE 19.6 mph - -   Mist
7:15 AM 57.2 °F 53.6 °F 88% 29.53 in 4.3 mi SE 17.3 mph - N/A   Scattered Clouds
7:45 AM 57.2 °F 53.6 °F 88% 29.50 in 4.3 mi SE 17.3 mph - N/A   Scattered Clouds
8:15 AM 57.2 °F 53.6 °F 88% 29.50 in 4.3 mi SE 18.4 mph - N/A   Scattered Clouds
8:45 AM 57.2 °F 53.6 °F 88% 29.50 in 4.3 mi SSE 24.2 mph - N/A   Mostly Cloudy
9:15 AM 57.2 °F 53.6 °F 88% 29.50 in 4.3 mi SSE 23.0 mph 34.5 mph N/A   Mostly Cloudy
9:45 AM 59.0 °F 55.4 °F 88% 29.50 in 4.3 mi SSE 25.3 mph - N/A   Mostly Cloudy
10:15 AM 59.0 °F 55.4 °F 88% 29.47 in 4.3 mi SSE 24.2 mph 36.8 mph N/A   Mostly Cloudy
10:45 AM 59.0 °F 55.4 °F 88% 29.47 in 3.1 mi SSE 20.7 mph - N/A   Light Drizzle
11:15 AM 60.8 °F 57.2 °F 88% 29.44 in 3.7 mi South 18.4 mph 32.2 mph N/A   Light Drizzle
11:45 AM 60.8 °F 55.4 °F 82% 29.44 in 4.3 mi South 17.3 mph - N/A   Scattered Clouds
12:15 PM 60.8 °F 57.2 °F 88% 29.44 in 4.3 mi South 23.0 mph - N/A   Scattered Clouds
12:45 PM 59.0 °F 55.4 °F 88% 29.42 in 4.3 mi SW 17.3 mph - N/A   Mostly Cloudy
1:00 PM 60 °F 56 °F 82% 29.44 in 4 mi SW 17.3 mph - -   Mist
1:15 PM 59.0 °F 55.4 °F 88% 29.42 in 4.3 mi SSW 17.3 mph - N/A   Mostly Cloudy
1:45 PM 59.0 °F 55.4 °F 88% 29.42 in 4.3 mi SSW 16.1 mph - N/A   Scattered Clouds
2:15 PM 59.0 °F 55.4 °F 88% 29.42 in 4.3 mi SW 12.7 mph - N/A   Scattered Clouds
2:45 PM 60.8 °F 55.4 °F 82% 29.42 in 4.3 mi SW 12.7 mph - N/A   Scattered Clouds
3:15 PM 60.8 °F 55.4 °F 82% 29.42 in 5.0 mi SW 19.6 mph - N/A   Partly Cloudy
3:45 PM 59.0 °F 55.4 °F 88% 29.44 in 5.0 mi SW 15.0 mph - N/A   Partly Cloudy
4:15 PM 59.0 °F 55.4 °F 88% 29.44 in 5.0 mi SSW 11.5 mph - N/A   Partly Cloudy
4:45 PM 59.0 °F 55.4 °F 88% 29.44 in 6.2 mi SW 9.2 mph - N/A   Partly Cloudy
5:15 PM 57.2 °F 53.6 °F 88% 29.44 in 6.2 mi SW 9.2 mph - N/A   Partly Cloudy
5:45 PM 57.2 °F 53.6 °F 88% 29.47 in 6.2 mi SW 8.1 mph - N/A   Partly Cloudy
6:15 PM 57.2 °F 53.6 °F 88% 29.47 in 6.2 mi SW 11.5 mph - N/A   Partly Cloudy
6:45 PM 55.4 °F 53.6 °F 94% 29.50 in 6.2 mi SW 10.4 mph - N/A   Partly Cloudy
7:00 PM 56 °F 53 °F 86% 29.52 in 6 mi SW 10.4 mph - -   Scattered Clouds
7:15 PM 55.4 °F 51.8 °F 88% 29.50 in 6.2 mi SW 9.2 mph - N/A   Partly Cloudy
7:45 PM 53.6 °F 50.0 °F 88% 29.53 in 6.2 mi SW 12.7 mph - N/A   Scattered Clouds
8:15 PM 53.6 °F 50.0 °F 88% 29.53 in 6.2 mi SW 10.4 mph - N/A   Partly Cloudy
8:45 PM 53.6 °F 50.0 °F 88% 29.56 in 6.2 mi SW 8.1 mph - N/A   Partly Cloudy
9:15 PM 53.6 °F 50.0 °F 88% 29.56 in 6.2 mi SW 9.2 mph - N/A   Partly Cloudy
9:45 PM 53.6 °F 50.0 °F 88% 29.56 in 6.2 mi SW 8.1 mph - N/A   Partly Cloudy
10:15 PM 51.8 °F 48.2 °F 88% 29.59 in 6.2 mi SW 11.5 mph - N/A   Partly Cloudy
10:45 PM 51.8 °F 48.2 °F 88% 29.59 in 6.2 mi SW 11.5 mph - N/A   Partly Cloudy
11:15 PM 51.8 °F 48.2 °F 88% 29.59 in 6.2 mi SW 9.2 mph - N/A   Partly Cloudy
11:45 PM 51.8 °F 48.2 °F 88% 29.59 in 6.2 mi SW 4.6 mph - N/A   Partly Cloudy